Location: Newark
(33.7579°N, 132.8129°E)
Time: 05:37:22
(UTC+00:00)

LightSail 2 - Visible Passes

Search period start: 18 November 2019 00:00
Search period end: 28 November 2019 00:00
Orbit: 700 x 727 km, 24.0° (Epoch: 17 November)

Date Brightness Start Highest point End Pass type
(mag) Time Alt. Az. Time Alt. Az. Time Alt. Az.
18 Nov 7.9 18:39:46 12° SE 18:39:46 12° SE 18:40:12 10° SE visible
18 Nov 7.2 20:18:45 12° SW 20:20:56 15° SSW 20:23:45 10° SSE visible
19 Nov 7.3 19:24:28 16° S 19:24:28 16° S 19:26:38 10° SSE visible
27 Nov 7.5 09:54:43 10° S 09:55:55 11° SSE 09:56:01 11° SSE visible
